Location: Camp Creek
(33.9000°N, 111.8167°W)
Time: 12:46:34
(UTC-07:00)

DELTA 2 R/B (1) - Visible Passes

Search period start: 03 June 2015 00:00
Search period end: 13 June 2015 00:00
Orbit: 792 x 802 km, 39.6° (Epoch: 03 June)

Date Brightness Start Highest point End Pass type
(mag) Time Alt. Az. Time Alt. Az. Time Alt. Az.
06 Jun 4.8 04:35:32 10° SSW 04:40:26 33° SE 04:45:24 10° E visible
07 Jun 4.8 04:05:41 13° SSW 04:09:45 30° SE 04:14:36 10° E visible
08 Jun 4.9 03:36:33 20° S 03:39:04 28° SE 03:43:46 10° E visible
09 Jun 4.9 03:07:21 24° SSE 03:08:23 25° SE 03:12:56 10° E visible
10 Jun 5.1 02:38:05 23° SE 02:38:05 23° SE 02:42:04 10° E visible
10 Jun 3.6 04:18:51 14° WSW 04:23:46 82° SSE 04:29:21 10° ENE visible
11 Jun 5.4 02:08:47 18° ESE 02:08:47 18° ESE 02:11:10 10° E visible
11 Jun 3.6 03:49:33 23° WSW 03:53:02 77° SSE 03:58:38 10° ENE visible
12 Jun 5.9 01:39:26 13° ESE 01:39:26 13° ESE 01:40:15 10° E visible
12 Jun 3.5 03:20:12 38° SW 03:22:19 72° SSE 03:27:54 10° ENE visible
